Terug naar catalogus

SKYKRAFT-1

ActiefWetenschapPO
NORAD 55041·PAYLOAD·🇦🇺 Australia

Gelanceerd Jan 3, 2023 vanaf Cape Canaveral Space Force Station

Loading…

Volgende Passages (komende 24 uur)

TLE

VersSource: Space-Track

Epoch: Sep 14, 2026, 23:04 UTC

1 55041U 23001AJ  26257.96166751  .00093383  00000-0  56564-3 0  9999
2 55041  97.3093 339.5308 0002706 108.9278 251.2282 15.77293919207159

Volg SKYKRAFT-1 in realtime met AllMySat

Download on the App Store